Location: Goll?ig?dem
(16.6773°N, 80.7332°E)
Time: 10:38:25
(UTC+00:00)

Envisat - Pass Details

Date: 02 October 2021
Orbit: 764 x 766 km, 98.2° (Epoch: 20 October)

Event Time Altitude Azimuth Distance (km) Brightness Sun altitude
Rises 23:06:34 0° 21° (NNE) 3,221 6.5 -20.2°
Reaches altitude 10° 23:08:58 10° 27° (NNE) 2,294 5.8 -19.6°
Maximum altitude 23:13:48 46° 101° (E) 1,016 4.1 -18.5°
Drops below altitude 10° 23:18:38 10° 173° (S) 2,291 5.5 -17.3°
Sets 23:21:00 0° 180° (S) 3,216 6.2 -16.7°
